Date String (YYYY-MM-DD hh:mm:ss) UTC,Instrument flags,absolute air pressure of the measurement (hPa),sample flow rate (lpm),inlet stack bypass flow (lpm),air temperature of the measurement (°C),ambient temperature measured by the external sensor (°C),aerosol sample conditioner tube jacket temperature (°C),OPC LED temperature (°C),internal box temperature (°C),relative humidity of the measurement (%),span deviation,mass concentration of particles derived from Lorenz-Mie calculation of OPC scattering (μg/m³),mass concentration of particles derived from Lorenz-Mie calculation of OPC scattering (μg/m³),mass concentration of particles derived from Lorenz-Mie calculation of OPC scattering (μg/m³)
DateTimeUTC,F1_M11,P_M11,Q1_M11,Q2_M11,T1_M11,T2_M11,T3_M11,T4_M11,T5_M11,U1_M11,ZSPAN_M11,X0_M11,X2_M11,X1_M11
2023-12-16 14:00:00,SystemResetWarning,0832.7,5.00,000.00,019.0,018.0,000.0,027.3,020.2,11.0,0000.0,0001.79,0001.25,0001.03
2023-12-16 14:01:00,SystemResetWarning,0832.7,5.01,000.00,019.0,018.0,000.0,027.3,020.2,10.9,0000.0,0001.79,0001.21,0001.01
2023-12-16 14:02:00,SystemResetWarning,0832.7,4.99,000.00,019.0,018.0,000.0,027.3,020.2,10.8,0000.0,0001.94,0001.20,0001.01
2023-12-16 14:03:00,SystemResetWarning,0832.7,5.00,000.00,019.0,018.0,000.0,027.3,020.2,10.9,0000.0,0002.13,0001.20,0001.00
2023-12-16 14:04:00,SystemResetWarning,0832.7,5.00,000.00,019.0,018.0,000.0,027.3,020.2,11.0,0000.0,0002.11,0001.19,0000.99
2023-12-16 14:05:00,SystemResetWarning,0832.7,4.99,000.00,019.0,018.0,000.0,027.3,020.2,11.0,0000.0,0002.13,0001.20,0000.99
2023-12-16 14:06:00,SystemResetWarning,0832.7,5.00,000.00,018.9,018.0,000.0,027.3,020.1,11.0,0000.0,0001.98,0001.16,0000.98
2023-12-16 14:07:00,SystemResetWarning,0832.6,5.01,000.00,018.9,018.0,000.0,027.2,020.1,10.9,0000.0,0001.87,0001.13,0000.97
2023-12-16 14:08:00,SystemResetWarning,0832.6,5.01,000.00,018.9,018.0,000.0,027.3,020.1,10.9,0000.0,0001.88,0001.14,0000.97
2023-12-16 14:09:00,SystemResetWarning,0832.6,5.01,000.00,018.9,018.0,000.0,027.3,020.1,10.7,0000.0,0001.92,0001.15,0000.97
2023-12-16 14:10:00,SystemResetWarning,0832.6,5.00,000.00,018.9,018.0,000.0,027.2,020.1,10.7,0000.0,0001.93,0001.14,0000.95
2023-12-16 14:11:00,SystemResetWarning,0832.7,5.00,000.00,018.9,018.0,000.0,027.2,020.1,10.7,0000.0,0001.91,0001.13,0000.96
2023-12-16 14:12:00,SystemResetWarning,0832.7,4.99,000.00,018.9,018.0,000.0,027.2,020.1,10.6,0000.0,0001.84,0001.11,0000.95
2023-12-16 14:13:00,SystemResetWarning,0832.7,5.00,000.00,018.9,018.0,000.0,027.2,020.1,10.8,0000.0,0002.10,0001.12,0000.96
2023-12-16 14:14:00,SystemResetWarning,0832.7,5.01,000.00,018.9,018.0,000.0,027.2,020.2,10.8,0000.0,0001.85,0001.10,0000.97
2023-12-16 14:15:00,SystemResetWarning,0832.6,5.01,000.00,018.9,018.0,000.0,027.2,020.1,10.7,0000.0,0002.02,0001.14,0000.98
2023-12-16 14:16:00,SystemResetWarning,0832.7,5.00,000.00,018.9,018.0,000.0,027.2,020.1,10.7,0000.0,0002.09,0001.16,0000.99
2023-12-16 14:17:00,SystemResetWarning,0832.7,5.00,000.00,018.9,018.0,000.0,027.2,020.2,10.8,0000.0,0002.20,0001.17,0000.99
2023-12-16 14:18:00,SystemResetWarning,0832.6,5.00,000.00,018.9,018.0,000.0,027.2,020.1,10.8,0000.0,0002.30,0001.18,0000.99
2023-12-16 14:19:00,SystemResetWarning,0832.7,4.99,000.00,018.9,018.0,000.0,027.2,020.2,10.8,0000.0,0002.43,0001.19,0000.98
2023-12-16 14:20:00,SystemResetWarning,0832.7,5.00,000.00,018.9,018.0,000.0,027.2,020.2,10.7,0000.0,0002.56,0001.25,0000.99
2023-12-16 14:21:00,SystemResetWarning,0832.7,5.00,000.00,018.9,018.0,000.0,027.2,020.2,10.7,0000.0,0002.50,0001.24,0000.99
2023-12-16 14:22:00,SystemResetWarning,0832.7,5.00,000.00,018.9,018.0,000.0,027.2,020.2,10.8,0000.0,0002.53,0001.26,0001.00
2023-12-16 14:23:00,SystemResetWarning,0832.7,5.00,000.00,018.9,018.0,000.0,027.2,020.2,10.8,0000.0,0002.58,0001.29,0001.02
2023-12-16 14:24:00,SystemResetWarning,0832.6,5.00,000.00,018.9,018.0,000.0,027.2,020.2,10.8,0000.0,0002.30,0001.27,0001.01
2023-12-16 14:25:00,SystemResetWarning,0832.7,5.01,000.00,018.9,018.0,000.0,027.2,020.2,10.8,0000.0,0002.19,0001.30,0001.02
2023-12-16 14:26:00,SystemResetWarning,0832.7,5.01,000.00,018.9,018.0,000.0,027.2,020.2,10.8,0000.0,0002.07,0001.27,0001.01
2023-12-16 14:27:00,SystemResetWarning,0832.7,5.00,000.00,018.9,018.0,000.0,027.2,020.1,10.8,0000.0,0002.06,0001.28,0001.00
2023-12-16 14:28:00,SystemResetWarning,0832.7,5.00,000.00,018.9,018.0,000.0,027.2,020.1,10.8,0000.0,0001.97,0001.28,0001.00
2023-12-16 14:29:00,SystemResetWarning,0832.7,4.99,000.00,018.9,018.0,000.0,027.2,020.2,10.9,0000.0,0001.96,0001.29,0001.00
2023-12-16 14:30:00,SystemResetWarning,0832.7,4.99,000.00,018.9,018.0,000.0,027.2,020.1,10.9,0000.0,0001.89,0001.30,0001.01
2023-12-16 14:31:00,SystemResetWarning,0832.7,4.99,000.00,018.9,018.0,000.0,027.2,020.2,10.9,0000.0,0001.84,0001.25,0001.00
2023-12-16 14:32:00,SystemResetWarning,0832.7,4.99,000.00,018.9,018.0,000.0,027.2,020.2,10.9,0000.0,0002.41,0001.25,0000.99
2023-12-16 14:33:00,SystemResetWarning,0832.7,5.00,000.00,018.9,018.0,000.0,027.2,020.2,10.9,0000.0,0002.52,0001.23,0000.97
2023-12-16 14:34:00,SystemResetWarning,0832.8,5.01,000.00,018.9,018.0,000.0,027.2,020.2,10.8,0000.0,0002.59,0001.20,0000.96
2023-12-16 14:35:00,SystemResetWarning,0832.7,5.01,000.00,018.9,018.0,000.0,027.2,020.2,11.2,0000.0,0002.73,0001.20,0000.95
2023-12-16 14:36:00,SystemResetWarning,0832.7,5.01,000.00,018.9,018.0,000.0,027.2,020.1,11.0,0000.0,0002.75,0001.20,0000.93
2023-12-16 14:37:00,SystemResetWarning,0832.7,5.00,000.00,018.9,018.0,000.0,027.2,020.1,11.0,0000.0,0002.71,0001.18,0000.92
2023-12-16 14:38:00,SystemResetWarning,0832.6,5.00,000.00,018.9,018.0,000.0,027.2,020.1,10.8,0000.0,0002.62,0001.15,0000.91
2023-12-16 14:39:00,SystemResetWarning,0832.7,5.00,000.00,018.9,018.0,000.0,027.2,020.2,10.6,0000.0,0002.61,0001.13,0000.90
2023-12-16 14:40:00,SystemResetWarning,0832.7,5.00,000.00,018.9,018.0,000.0,027.2,020.2,10.9,0000.0,0002.74,0001.12,0000.89
2023-12-16 14:41:00,SystemResetWarning,0832.7,4.99,000.00,018.9,018.0,000.0,027.2,020.2,11.0,0000.0,0004.12,0001.09,0000.89
2023-12-16 14:42:00,SystemResetWarning,0832.7,5.00,000.00,018.9,018.0,000.0,027.2,020.2,10.9,0000.0,0004.07,0001.08,0000.89
2023-12-16 14:43:00,SystemResetWarning,0832.7,5.00,000.00,018.9,018.0,000.0,027.2,020.2,10.8,0000.0,0003.71,0001.07,0000.90
2023-12-16 14:44:00,SystemResetWarning,0832.7,4.99,000.00,018.9,018.1,000.0,027.2,020.2,10.8,0000.0,0003.67,0001.08,0000.89
2023-12-16 14:45:00,SystemResetWarning,0832.8,5.00,000.00,019.0,018.1,000.0,027.2,020.2,10.7,0000.0,0003.65,0001.10,0000.89
2023-12-16 14:46:00,SystemResetWarning,0832.7,4.99,000.00,019.0,018.1,000.0,027.2,020.2,10.8,0000.0,0003.50,0001.12,0000.89
2023-12-16 14:47:00,SystemResetWarning,0832.7,5.00,000.00,019.0,018.1,000.0,027.2,020.2,10.8,0000.0,0003.56,0001.14,0000.90
2023-12-16 14:48:00,SystemResetWarning,0832.7,5.00,000.00,019.0,018.1,000.0,027.2,020.2,10.7,0000.0,0003.60,0001.14,0000.90
2023-12-16 14:49:00,SystemResetWarning,0832.7,5.00,000.00,019.0,018.1,000.0,027.2,020.2,10.7,0000.0,0004.26,0001.14,0000.90
2023-12-16 14:50:00,SystemResetWarning,0832.7,5.00,000.00,019.0,018.1,000.0,027.2,020.3,10.8,0000.0,0005.72,0001.15,0000.90
2023-12-16 14:51:00,SystemResetWarning,0832.7,5.00,000.00,019.0,018.1,000.0,027.2,020.3,10.6,0000.0,0005.80,0001.16,0000.90
2023-12-16 14:52:00,SystemResetWarning,0832.8,5.00,000.00,019.0,018.1,000.0,027.2,020.3,10.8,0000.0,0004.43,0001.21,0000.89
2023-12-16 14:53:00,SystemResetWarning,0832.7,5.00,000.00,019.0,018.1,000.0,027.2,020.2,10.9,0000.0,0004.31,0001.21,0000.88
2023-12-16 14:54:00,SystemResetWarning,0832.7,5.00,000.00,019.0,018.2,000.0,027.2,020.3,10.5,0000.0,0004.11,0001.20,0000.87
2023-12-16 14:55:00,SystemResetWarning,0832.7,5.00,000.00,019.0,018.2,000.0,027.2,020.3,10.4,0000.0,0003.97,0001.19,0000.88
2023-12-16 14:56:00,SystemResetWarning,0832.7,5.00,000.00,019.0,018.2,000.0,027.2,020.3,10.5,0000.0,0004.26,0001.18,0000.89
2023-12-16 14:57:00,SystemResetWarning,0832.7,5.00,000.00,019.0,018.2,000.0,027.2,020.3,10.5,0000.0,0004.98,0001.16,0000.90
2023-12-16 14:58:00,SystemResetWarning,0832.7,5.00,000.00,019.0,018.2,000.0,027.3,020.3,10.7,0000.0,0004.87,0001.10,0000.88
2023-12-16 14:59:00,SystemResetWarning,0832.7,5.01,000.00,019.1,018.2,000.0,027.3,020.3,11.1,0000.0,0004.79,0001.08,0000.88
